Regional Weather Roundup
Issued by NWS

Home | Current Version | Previous Version | Text Only | Print | Product List | Glossary On
Versions: 1 2 3 4 5 6 7 8 9 10 11 12 13 14 15 16 17 18 19 20 21 22 23 24 25 26 27 28 29 30 31 32 33 34 35 36 37 38 39 40 41 42 43 44 45 46 47 48 49 50
000
ASUS46 KPQR 180310
RWROR

OREGON REGIONAL WEATHER ROUNDUP
NATIONAL WEATHER SERVICE PORTLAND OR
800 PM PDT THU AUG 17 2017

NOTE: "FAIR" INDICATES FEW OR NO CLOUDS BELOW 12,000 FEET WITH
NO SIGNIFICANT WEATHER AND/OR OBSTRUCTIONS TO VISIBILITY.

ORZ001>013-180400-
NORTHWEST OREGON


CITY           SKY/WX    TMP DP  RH WIND       PRES   REMARKS
ASTORIA        PTCLDY    62  52  69 NW15      30.18S
NEWPORT        CLEAR     57  52  82 N13       30.17S
PORTLAND       PTCLDY    75  57  53 N6        30.10S
VANCOUVER WA   CLEAR     76  57  51 NW6       30.10S
SCAPPOOSE      CLEAR     74  56  53 N9        30.10S
HILLSBORO      CLEAR     75  56  51 NE5       30.11S
AURORA         CLEAR     78  54  43 NE7       30.11S
MCMINNVILLE    NOT AVBL
SALEM          CLEAR     79  51  37 NE8       30.08S
CORVALLIS      CLEAR     75  55  50 NW6       30.11R
EUGENE         PTCLDY    77  45  32 N10       30.08S
$$

ORZ021-028-180400-
SOUTHWEST OREGON


CITY           SKY/WX    TMP DP  RH WIND       PRES   REMARKS
NORTH BEND     PTCLDY    60  52  74 N17       30.13S
BROOKINGS      MOCLDY    60  55  83 SE3       30.00R
ROSEBURG       CLEAR     85  35  16 N13       30.05R
SEXTON SUMMIT  CLEAR     70  36  28 N8        30.17F
GRANTS PASS    FAIR      88  37  16 N13       30.06R
MEDFORD        CLEAR     88  36  15 N6        30.01R
$$

ORZ014>016-041-180400-
COLUMBIA GORGE


CITY           SKY/WX    TMP DP  RH WIND       PRES   REMARKS
TROUTDALE      CLEAR     77  55  46 CALM      30.09S
HOOD RIVER     CLEAR     75  45  33 W3        30.05S
THE DALLES     CLEAR     79  47  32 NW10      29.99S
$$

ORZ029>031-041-044-049-050-061>064-502-503-505>511-180400-
EASTERN OREGON


CITY           SKY/WX    TMP DP  RH WIND       PRES   REMARKS
MADRAS         CLEAR     73  32  21 NW12      30.11R
REDMOND        CLEAR     78  24  13 NE9       30.11R
BEND           CLEAR     79  32  18 N8        30.14R
PRINEVILLE     PTCLDY    77  27  15 N10       30.13R
KLAMATH FALLS  CLEAR     77  46  33 NW10      30.15R
LAKEVIEW       CLEAR    N/A N/A N/A W5        30.17S
HERMISTON      CLEAR     82  49  31 E3        29.96R
PENDLETON      CLEAR     79  40  24 CALM      30.01R
JOHN DAY       CLEAR     78  25  13 CALM      30.12S
MEACHAM        CLEAR     67  32  27 CALM      30.15R
LA GRANDE      NOT AVBL
BAKER CITY     CLEAR     73  46  38 VRB6      30.09R
BURNS          CLEAR     70  30  22 NW7       30.12S
ROME             N/A     82  21  10 N7        30.10R
ONTARIO        CLEAR     80  53  39 E3        30.00R
$$



USA.gov is the U.S. government's official web portal to all federal, state and local government web resources and services.